Middle River, MD

10:02 AM EST on December 05, 2016 (GMT -0500)
Martin State

Weather History for KMTN - July, 2013

Change the Weather History Date:

Sunday, July 28, 2013

  Actual Average Record
Temperature  
Mean Temperature 78 °F -  
Max Temperature 82 °F 82 °F 125 °F (1997)
Min Temperature 73 °F 67 °F 62 °F (2001)
Cooling Degree Days 12    
Growing Degree Days 28 (Base 50)    
Moisture  
Dew Point 71 °F    
Average Humidity 80    
Maximum Humidity 94    
Minimum Humidity 73    
Precipitation  
Precipitation 0.00 in - - ()
Sea Level Pressure  
Sea Level Pressure 29.94 in    
Wind  
Wind Speed 7 mph (SSE)    
Max Wind Speed 12 mph    
Max Gust Speed -    
Visibility 10 miles    
Events Rain    
Averages and records for this station are not official NWS values.
T = Trace of Precipitation, MM = Missing Value Source: NWS Daily Summary

Daily Weather History Graph

Daily Weather History Graph

Search for Another Location

Airport or City:

Trip Planner

Search our weather history database for the weather conditions in past years. The results will help you decide how hot, cold, wet, or windy it might be!

Date:

Astronomy

Jul. 28, 2013 Rise Set
Actual Time 6:02 AM EDT 8:21 PM EDT
Civil Twilight 5:31 AM EDT 8:51 PM EDT
Nautical Twilight 4:54 AM EDT 9:28 PM EDT
Astronomical Twilight 4:13 AM EDT 10:09 PM EDT
Moon 11:44 PM EDT (7/28) 12:39 PM EDT (7/28)
Length of Visible Light 15h 19m
Length of Day
14h 19m
Waning Gibbous, 61% of the Moon is Illuminated
Jul 28
Waning Gibbous
Jul 29
Last Quarter
Aug 6
New
Aug 14
First Quarter
Aug 20
Full

Hourly Weather History & Observations

Time (EDT) Temp. Heat Index Dew Point Humidity Pressure Visibility Wind Dir Wind Speed Gust Speed Precip Events Conditions
12:03 AM 77.0 °F - 69.8 °F 78% 29.95 in 10.0 mi SSE 8.1 mph - N/A   Clear
12:18 AM 77.0 °F - 69.8 °F 78% 29.95 in 10.0 mi SSE 9.2 mph - N/A   Scattered Clouds
12:42 AM 77.0 °F - 68.0 °F 74% 29.94 in 10.0 mi SSE 11.5 mph - N/A   Scattered Clouds
1:03 AM 77.0 °F - 69.8 °F 78% 29.94 in 10.0 mi SSE 9.2 mph - N/A   Scattered Clouds
1:21 AM 77.0 °F - 69.8 °F 78% 29.94 in 10.0 mi SSE 6.9 mph - N/A   Mostly Cloudy
1:42 AM 77.0 °F - 69.8 °F 78% 29.94 in 10.0 mi South 3.5 mph - N/A   Mostly Cloudy
2:03 AM 77.0 °F - 69.8 °F 78% 29.94 in 10.0 mi South 4.6 mph - N/A   Mostly Cloudy
2:21 AM 77.0 °F - 69.8 °F 78% 29.94 in 10.0 mi South 4.6 mph - N/A Rain Light Rain
2:42 AM 77.0 °F - 68.0 °F 74% 29.94 in 10.0 mi South 5.8 mph - N/A Rain Light Rain
3:03 AM 75.2 °F - 68.0 °F 78% 29.94 in 10.0 mi South 6.9 mph - N/A   Mostly Cloudy
3:21 AM 75.2 °F - 68.0 °F 78% 29.93 in 10.0 mi South 5.8 mph - N/A   Mostly Cloudy
3:42 AM 75.2 °F - 68.0 °F 78% 29.93 in 10.0 mi South 4.6 mph - N/A   Scattered Clouds
4:03 AM 75.2 °F - 66.2 °F 73% 29.93 in 10.0 mi South 6.9 mph - N/A   Scattered Clouds
4:21 AM 75.2 °F - 66.2 °F 73% 29.93 in 10.0 mi South 5.8 mph - N/A   Scattered Clouds
4:42 AM 75.2 °F - 66.2 °F 73% 29.93 in 10.0 mi SSE 6.9 mph - N/A   Scattered Clouds
5:03 AM 75.2 °F - 66.2 °F 73% 29.93 in 10.0 mi SSE 9.2 mph - N/A   Scattered Clouds
5:24 AM 75.2 °F - 68.0 °F 78% 29.93 in 10.0 mi South 6.9 mph - N/A   Scattered Clouds
5:30 AM 75.2 °F - 68.0 °F 78% 29.93 in 10.0 mi South 6.9 mph - N/A   Scattered Clouds
5:55 AM 75.2 °F - 69.8 °F 83% 29.94 in 7.0 mi ENE 6.9 mph - N/A   Overcast
6:55 AM 75.2 °F - 69.8 °F 83% 29.95 in 10.0 mi South 5.8 mph - N/A   Mostly Cloudy
7:55 AM 75.2 °F - 69.8 °F 83% 29.95 in 10.0 mi South 6.9 mph - N/A   Overcast
8:50 AM 77.0 °F - 71.6 °F 83% 29.94 in 10.0 mi SSE 6.9 mph - N/A   Overcast
9:55 AM 78.8 °F - 71.6 °F 78% 29.93 in 10.0 mi SSE 5.8 mph - N/A   Mostly Cloudy
10:55 AM 78.8 °F - 73.4 °F 83% 29.94 in 10.0 mi South 6.9 mph - N/A   Mostly Cloudy
11:55 AM 80.6 °F 85.4 °F 73.4 °F 79% 29.94 in 10.0 mi South 4.6 mph - N/A   Mostly Cloudy
12:45 PM 80.6 °F 85.4 °F 73.4 °F 79% 29.94 in 10.0 mi SE 6.9 mph - N/A   Mostly Cloudy
1:54 PM 80.6 °F 86.2 °F 75.2 °F 84% 29.93 in 10.0 mi SSE 10.4 mph - N/A   Mostly Cloudy
2:45 PM 82.4 °F 89.5 °F 75.2 °F 79% 29.92 in 10.0 mi SE 9.2 mph - N/A   Scattered Clouds
3:50 PM 82.4 °F 88.2 °F 73.4 °F 74% 29.91 in 10.0 mi ESE 8.1 mph - N/A   Mostly Cloudy
4:45 PM 82.4 °F 88.2 °F 73.4 °F 74% 29.90 in 10.0 mi SSE 9.2 mph - N/A   Mostly Cloudy
5:45 PM 82.4 °F 88.2 °F 73.4 °F 74% 29.91 in 10.0 mi SSE 10.4 mph - N/A   Mostly Cloudy
6:55 PM 78.8 °F - 71.6 °F 78% 29.91 in 10.0 mi SE 9.2 mph - N/A   Mostly Cloudy
7:45 PM 78.8 °F - 71.6 °F 78% 29.94 in 10.0 mi NE 8.1 mph - N/A   Mostly Cloudy
8:45 PM 77.0 °F - 71.6 °F 83% 29.93 in 10.0 mi Calm Calm - N/A   Mostly Cloudy
9:45 PM 75.2 °F - 73.4 °F 94% 29.96 in 10.0 mi Calm Calm - N/A   Mostly Cloudy
10:06 PM 75.2 °F - 71.6 °F 89% 29.96 in 7.0 mi Calm Calm - N/A   Clear
10:24 PM 75.2 °F - 71.6 °F 89% 29.97 in 10.0 mi Calm Calm - N/A   Clear
10:45 PM 73.4 °F - 71.6 °F 94% 29.97 in 10.0 mi Calm Calm - N/A   Clear
11:06 PM 73.4 °F - 71.6 °F 94% 29.97 in 10.0 mi Calm Calm - N/A   Clear
11:24 PM 73.4 °F - 71.6 °F 94% 29.97 in 10.0 mi Calm Calm - N/A   Scattered Clouds
11:45 PM 77.0 °F - 73.4 °F 89% 29.98 in 10.0 mi Calm Calm - N/A   Mostly Cloudy